User: anonymous   Login
Location: Newark
(54.3386°S, 169.8415°W)
Time: 18:05:16
(UTC+00:00)
Language:

Explorer 11/Cluster Stage 4 - Orbit

View from above orbital plane
View from above orbital plane
View from above satellite
View from above satellite

Ground track
Ground track

The orbit data is extracted from the following two-line orbital elements,

1   107U 61013A   19295.83201824  .00000329  00000-0  26396-4 0  9997
2   107  28.7862  88.9970 0547228  76.3681 289.7205 14.08833851932090
Epoch (UTC): 22 October 2019 19:58:06
Eccentricity: 0.0547228
inclination: 28.7862°
perigee height: 467 km
apogee height: 1259 km
right ascension of ascending node: 88.9970°
argument of perigee: 76.3681°
revolutions per day: 14.08833851
mean anomaly at epoch: 289.7205°
orbit number at epoch: 93209

The dashed part of the orbit path shows where the satellite is in the earth's shadow,  

DLR